Time,TemperatureF,DewpointF,PressureIn,WindDirection,WindDirectionDegrees,WindSpeedMPH,WindSpeedGustMPH,Humidity,HourlyPrecipIn,Conditions,Clouds,dailyrainin,SoftwareType,DateUTC
2013-03-30 00:02:00,64.9,56.5,29.99,SSE,166,0.0,5.0,74,0.00,,,0.00,meteohub,2013-03-30 05:02:00,
2013-03-30 00:07:00,65.1,56.7,29.99,South,171,0.0,5.0,74,0.00,,,0.00,meteohub,2013-03-30 05:07:00,
2013-03-30 00:12:00,65.1,56.3,29.99,South,173,0.0,5.0,73,0.00,,,0.00,meteohub,2013-03-30 05:12:00,
2013-03-30 00:17:00,65.1,56.3,29.99,South,173,0.0,5.0,73,0.00,,,0.00,meteohub,2013-03-30 05:17:00,
2013-03-30 00:22:00,64.9,56.5,30.00,South,173,0.0,5.0,74,0.00,,,0.00,meteohub,2013-03-30 05:22:00,
2013-03-30 00:27:00,64.9,56.5,30.01,SW,222,4.0,5.0,74,0.00,,,0.00,meteohub,2013-03-30 05:27:00,
2013-03-30 00:32:00,64.9,56.5,30.03,WSW,253,4.0,5.0,74,0.00,,,0.00,meteohub,2013-03-30 05:32:00,
2013-03-30 00:37:00,65.1,56.7,30.04,West,259,0.0,5.0,74,0.00,,,0.00,meteohub,2013-03-30 05:37:00,
2013-03-30 00:42:00,65.5,56.7,30.04,West,272,4.0,5.0,73,0.00,,,0.00,meteohub,2013-03-30 05:42:00,
2013-03-30 00:47:00,65.7,56.8,30.04,West,272,0.0,5.0,73,0.00,,,0.00,meteohub,2013-03-30 05:47:00,
2013-03-30 00:52:00,65.8,56.5,30.03,West,272,0.0,6.0,72,0.00,,,0.00,meteohub,2013-03-30 05:52:00,
2013-03-30 00:57:00,65.8,56.5,30.02,West,272,0.0,6.0,72,0.00,,,0.00,meteohub,2013-03-30 05:57:00,
2013-03-30 01:02:00,65.8,56.5,30.00,West,267,0.0,6.0,72,0.00,,,0.00,meteohub,2013-03-30 06:02:00,
2013-03-30 01:07:00,65.8,56.5,29.99,WSW,249,0.0,6.0,72,0.00,,,0.00,meteohub,2013-03-30 06:07:00,
2013-03-30 01:12:00,65.7,56.3,29.99,SW,229,0.0,6.0,72,0.00,,,0.00,meteohub,2013-03-30 06:12:00,
2013-03-30 01:17:00,65.5,56.7,29.99,SW,229,0.0,6.0,73,0.00,,,0.00,meteohub,2013-03-30 06:17:00,
2013-03-30 01:23:00,65.3,56.5,29.99,SW,229,0.0,5.0,73,0.00,,,0.00,meteohub,2013-03-30 06:23:00,
2013-03-30 01:28:00,64.9,56.5,29.99,SW,229,0.0,5.0,74,0.00,,,0.00,meteohub,2013-03-30 06:28:00,
2013-03-30 01:33:00,64.8,56.3,29.98,SW,229,0.0,5.0,74,0.00,,,0.00,meteohub,2013-03-30 06:33:00,
2013-03-30 01:38:00,64.4,55.9,29.97,SW,227,0.0,0.0,74,0.00,,,0.00,meteohub,2013-03-30 06:38:00,
2013-03-30 01:43:00,64.0,55.9,29.96,SSE,160,4.0,0.0,75,0.00,,,0.00,meteohub,2013-03-30 06:43:00,
2013-03-30 01:48:00,64.0,56.3,29.96,SSE,153,0.0,0.0,76,0.00,,,0.00,meteohub,2013-03-30 06:48:00,
2013-03-30 01:53:00,64.0,56.3,29.96,SE,146,0.0,10.0,76,0.00,,,0.00,meteohub,2013-03-30 06:53:00,
2013-03-30 01:58:00,64.0,56.3,29.96,SSE,157,0.0,10.0,76,0.00,,,0.00,meteohub,2013-03-30 06:58:00,
2013-03-30 02:03:00,64.0,56.3,29.96,SSE,168,0.0,10.0,76,0.00,,,0.00,meteohub,2013-03-30 07:03:00,
2013-03-30 02:08:00,64.0,56.3,29.95,SSE,154,6.0,10.0,76,0.00,,,0.00,meteohub,2013-03-30 07:08:00,
2013-03-30 02:13:00,63.9,56.1,29.95,SSE,153,0.0,10.0,76,0.00,,,0.00,meteohub,2013-03-30 07:13:00,
2013-03-30 02:18:00,63.5,55.8,29.95,SSE,153,0.0,9.0,76,0.00,,,0.00,meteohub,2013-03-30 07:18:00,
2013-03-30 02:23:00,63.1,55.8,29.95,SSE,153,0.0,9.0,77,0.00,,,0.00,meteohub,2013-03-30 07:23:00,
2013-03-30 02:28:00,63.0,55.6,29.95,SSE,153,0.0,9.0,77,0.00,,,0.00,meteohub,2013-03-30 07:28:00,
2013-03-30 02:33:00,63.0,55.9,29.95,SSE,153,0.0,7.0,78,0.00,,,0.00,meteohub,2013-03-30 07:33:00,
2013-03-30 02:38:00,62.8,55.8,29.95,SSE,153,0.0,7.0,78,0.00,,,0.00,meteohub,2013-03-30 07:38:00,
2013-03-30 02:43:00,62.4,55.4,29.95,SSE,153,0.0,7.0,78,0.00,,,0.00,meteohub,2013-03-30 07:43:00,
2013-03-30 02:48:00,62.2,55.2,29.95,SSE,153,0.0,7.0,78,0.00,,,0.00,meteohub,2013-03-30 07:48:00,
2013-03-30 02:53:00,62.1,55.4,29.95,SSE,153,0.0,0.0,79,0.00,,,0.00,meteohub,2013-03-30 07:53:00,
2013-03-30 02:58:00,61.9,55.2,29.95,SSE,153,0.0,0.0,79,0.00,,,0.00,meteohub,2013-03-30 07:58:00,
2013-03-30 03:03:00,61.5,55.2,29.95,SSE,153,0.0,0.0,80,0.00,,,0.00,meteohub,2013-03-30 08:03:00,
2013-03-30 03:08:00,61.3,55.0,29.95,SSE,153,0.0,0.0,80,0.00,,,0.00,meteohub,2013-03-30 08:08:00,
2013-03-30 03:13:00,61.2,54.9,29.95,SSE,153,0.0,0.0,80,0.00,,,0.00,meteohub,2013-03-30 08:13:00,
2013-03-30 03:18:00,61.0,55.0,29.95,SSE,153,0.0,0.0,81,0.00,,,0.00,meteohub,2013-03-30 08:18:00,
2013-03-30 03:23:00,60.8,54.9,29.95,SSE,153,0.0,0.0,81,0.00,,,0.00,meteohub,2013-03-30 08:23:00,
2013-03-30 03:28:00,60.6,54.7,29.96,SSE,153,0.0,0.0,81,0.00,,,0.00,meteohub,2013-03-30 08:28:00,
2013-03-30 03:33:00,60.4,54.5,29.95,SSE,153,0.0,0.0,81,0.00,,,0.00,meteohub,2013-03-30 08:33:00,
2013-03-30 03:38:00,60.1,54.5,29.95,SSE,153,0.0,0.0,82,0.00,,,0.00,meteohub,2013-03-30 08:38:00,
2013-03-30 03:43:00,59.7,54.5,29.95,SSE,153,0.0,0.0,83,0.00,,,0.00,meteohub,2013-03-30 08:43:00,
2013-03-30 03:48:00,59.5,54.3,29.95,SSE,153,0.0,0.0,83,0.00,,,0.00,meteohub,2013-03-30 08:48:00,
2013-03-30 03:53:00,59.4,54.5,29.95,SSE,153,0.0,0.0,84,0.00,,,0.00,meteohub,2013-03-30 08:53:00,
2013-03-30 03:58:00,59.2,54.3,29.95,SSE,153,0.0,0.0,84,0.00,,,0.00,meteohub,2013-03-30 08:58:00,
2013-03-30 04:03:00,58.8,54.0,29.95,SSE,153,0.0,0.0,84,0.00,,,0.00,meteohub,2013-03-30 09:03:00,
2013-03-30 04:08:00,58.6,54.1,29.95,SSE,153,0.0,0.0,85,0.00,,,0.00,meteohub,2013-03-30 09:08:00,
2013-03-30 04:13:00,58.6,54.1,29.95,SSE,153,0.0,0.0,85,0.00,,,0.00,meteohub,2013-03-30 09:13:00,
2013-03-30 04:18:00,58.5,54.0,29.94,SSE,153,0.0,0.0,85,0.00,,,0.00,meteohub,2013-03-30 09:18:00,
2013-03-30 04:23:00,58.5,54.3,29.94,SSE,153,0.0,0.0,86,0.00,,,0.00,meteohub,2013-03-30 09:23:00,
2013-03-30 04:29:00,58.5,54.3,29.94,SSE,153,0.0,0.0,86,0.00,,,0.00,meteohub,2013-03-30 09:29:00,
2013-03-30 04:34:00,58.5,54.3,29.94,SSE,153,0.0,0.0,86,0.00,,,0.00,meteohub,2013-03-30 09:34:00,
2013-03-30 04:39:00,58.5,54.3,29.95,SSE,153,0.0,0.0,86,0.00,,,0.00,meteohub,2013-03-30 09:39:00,
2013-03-30 04:44:00,58.5,54.3,29.95,SSE,153,0.0,0.0,86,0.00,,,0.00,meteohub,2013-03-30 09:44:00,
2013-03-30 04:49:00,58.5,54.3,29.95,SSE,153,0.0,0.0,86,0.00,,,0.00,meteohub,2013-03-30 09:49:00,
2013-03-30 04:55:00,58.3,54.1,29.95,SSE,153,0.0,0.0,86,0.00,,,0.00,meteohub,2013-03-30 09:55:00,
2013-03-30 05:00:00,58.3,54.1,29.95,SSE,153,0.0,0.0,86,0.00,,,0.00,meteohub,2013-03-30 10:00:00,
2013-03-30 05:05:00,58.3,54.1,29.95,SSE,153,0.0,0.0,86,0.00,,,0.00,meteohub,2013-03-30 10:05:00,
2013-03-30 05:10:00,58.3,54.1,29.95,SSE,153,0.0,0.0,86,0.00,,,0.00,meteohub,2013-03-30 10:10:00,
2013-03-30 05:15:00,58.1,54.0,29.94,SSE,153,0.0,0.0,86,0.00,,,0.00,meteohub,2013-03-30 10:15:00,
2013-03-30 05:20:00,57.9,53.8,29.95,SSE,153,0.0,0.0,86,0.00,,,0.00,meteohub,2013-03-30 10:20:00,
2013-03-30 05:25:00,57.9,53.8,29.94,SSE,153,0.0,0.0,86,0.00,,,0.00,meteohub,2013-03-30 10:25:00,
2013-03-30 05:30:00,57.7,53.6,29.95,SSE,153,0.0,0.0,86,0.00,,,0.00,meteohub,2013-03-30 10:30:00,
2013-03-30 05:35:00,57.6,53.4,29.95,SSE,153,0.0,0.0,86,0.00,,,0.00,meteohub,2013-03-30 10:35:00,
2013-03-30 05:40:00,57.4,53.6,29.95,SSE,153,0.0,0.0,87,0.00,,,0.00,meteohub,2013-03-30 10:40:00,
2013-03-30 05:45:00,57.4,53.8,29.95,SSE,153,0.0,0.0,88,0.00,,,0.00,meteohub,2013-03-30 10:45:00,
2013-03-30 05:50:00,57.4,53.8,29.95,SSE,153,0.0,0.0,88,0.00,,,0.00,meteohub,2013-03-30 10:50:00,
2013-03-30 05:55:00,57.4,53.8,29.96,SSE,153,0.0,0.0,88,0.00,,,0.00,meteohub,2013-03-30 10:55:00,
2013-03-30 06:00:00,57.4,53.8,29.96,SSE,153,0.0,0.0,88,0.00,,,0.00,meteohub,2013-03-30 11:00:00,
2013-03-30 06:05:00,57.4,53.6,29.96,SSE,153,0.0,0.0,87,0.00,,,0.00,meteohub,2013-03-30 11:05:00,
2013-03-30 06:10:00,57.4,53.6,29.96,SSE,153,0.0,0.0,87,0.00,,,0.00,meteohub,2013-03-30 11:10:00,
2013-03-30 06:15:00,57.0,53.4,29.96,SSE,153,0.0,0.0,88,0.00,,,0.00,meteohub,2013-03-30 11:15:00,
2013-03-30 06:20:00,57.0,53.4,29.96,SSE,153,0.0,0.0,88,0.00,,,0.00,meteohub,2013-03-30 11:20:00,
2013-03-30 06:25:00,56.8,53.2,29.96,SSE,153,0.0,0.0,88,0.00,,,0.00,meteohub,2013-03-30 11:25:00,
2013-03-30 06:30:00,56.8,53.2,29.95,SSE,153,0.0,0.0,88,0.00,,,0.00,meteohub,2013-03-30 11:30:00,
2013-03-30 06:35:00,56.8,53.2,29.95,SSE,153,0.0,0.0,88,0.00,,,0.00,meteohub,2013-03-30 11:35:00,
2013-03-30 06:40:00,56.8,53.2,29.95,SSE,153,0.0,0.0,88,0.00,,,0.00,meteohub,2013-03-30 11:40:00,
2013-03-30 06:45:00,56.8,53.6,29.95,SSE,153,0.0,0.0,89,0.00,,,0.00,meteohub,2013-03-30 11:45:00,
2013-03-30 06:51:00,56.7,53.4,29.95,SSE,153,0.0,0.0,89,0.00,,,0.00,meteohub,2013-03-30 11:51:00,
2013-03-30 06:56:00,56.7,53.4,29.95,SSE,153,0.0,0.0,89,0.00,,,0.00,meteohub,2013-03-30 11:56:00,
2013-03-30 07:01:00,56.8,53.6,29.95,SSE,153,0.0,0.0,89,0.00,,,0.00,meteohub,2013-03-30 12:01:00,
2013-03-30 07:06:00,56.8,53.6,29.95,SSE,153,0.0,0.0,89,0.00,,,0.00,meteohub,2013-03-30 12:06:00,
2013-03-30 07:11:00,56.8,53.6,29.95,SSE,153,0.0,0.0,89,0.00,,,0.00,meteohub,2013-03-30 12:11:00,
2013-03-30 07:16:00,56.7,53.4,29.96,SSE,153,0.0,0.0,89,0.00,,,0.00,meteohub,2013-03-30 12:16:00,
2013-03-30 07:21:00,56.5,52.9,29.96,SSE,153,0.0,0.0,88,0.00,,,0.00,meteohub,2013-03-30 12:21:00,
2013-03-30 07:27:00,56.1,52.7,29.96,SSE,153,0.0,0.0,88,0.00,,,0.00,meteohub,2013-03-30 12:27:00,
2013-03-30 07:32:00,55.9,52.5,29.96,SSE,153,0.0,0.0,88,0.00,,,0.00,meteohub,2013-03-30 12:32:00,
2013-03-30 07:37:00,55.6,52.2,29.96,SSE,153,0.0,0.0,88,0.00,,,0.00,meteohub,2013-03-30 12:37:00,
2013-03-30 07:42:00,55.2,52.0,29.96,SSE,153,0.0,0.0,89,0.00,,,0.00,meteohub,2013-03-30 12:42:00,
2013-03-30 07:47:00,55.2,52.3,29.96,SSE,153,0.0,0.0,90,0.00,,,0.00,meteohub,2013-03-30 12:47:00,
2013-03-30 07:52:00,55.2,52.3,29.96,SSE,153,0.0,0.0,90,0.00,,,0.00,meteohub,2013-03-30 12:52:00,
2013-03-30 07:57:00,55.2,52.7,29.96,SSE,153,0.0,0.0,91,0.00,,,0.00,meteohub,2013-03-30 12:57:00,
2013-03-30 08:02:00,55.4,52.9,29.96,SSE,153,0.0,0.0,91,0.00,,,0.00,meteohub,2013-03-30 13:02:00,
2013-03-30 08:08:00,55.6,53.1,29.96,SSE,153,0.0,0.0,91,0.00,,,0.00,meteohub,2013-03-30 13:08:00,
2013-03-30 08:13:00,55.9,53.6,29.96,SSE,153,0.0,0.0,92,0.00,,,0.00,meteohub,2013-03-30 13:13:00,
2013-03-30 08:18:00,56.1,53.8,29.96,SSE,153,0.0,0.0,92,0.00,,,0.00,meteohub,2013-03-30 13:18:00,
2013-03-30 08:23:00,56.5,54.0,29.96,SSE,153,0.0,0.0,91,0.00,,,0.00,meteohub,2013-03-30 13:23:00,
2013-03-30 08:28:00,56.7,54.3,29.96,SSE,153,0.0,0.0,92,0.00,,,0.00,meteohub,2013-03-30 13:28:00,
2013-03-30 08:33:00,57.0,54.7,29.96,SSE,153,0.0,0.0,92,0.00,,,0.00,meteohub,2013-03-30 13:33:00,
2013-03-30 08:38:00,57.4,54.9,29.96,SSE,153,0.0,0.0,91,0.00,,,0.00,meteohub,2013-03-30 13:38:00,
2013-03-30 08:43:00,57.7,55.2,29.96,SSE,153,0.0,0.0,91,0.00,,,0.00,meteohub,2013-03-30 13:43:00,
2013-03-30 08:48:00,58.3,55.6,29.97,SSE,153,0.0,0.0,91,0.00,,,0.00,meteohub,2013-03-30 13:48:00,
2013-03-30 08:53:00,58.6,55.9,29.97,SSE,153,0.0,0.0,91,0.00,,,0.00,meteohub,2013-03-30 13:53:00,
2013-03-30 08:58:00,59.0,56.7,29.97,SSE,153,0.0,0.0,92,0.00,,,0.00,meteohub,2013-03-30 13:58:00,
2013-03-30 09:03:00,59.4,56.1,29.97,SSE,153,0.0,0.0,89,0.00,,,0.00,meteohub,2013-03-30 14:03:00,
2013-03-30 09:08:00,59.5,56.3,29.97,SSE,153,0.0,0.0,89,0.00,,,0.00,meteohub,2013-03-30 14:08:00,
2013-03-30 09:13:00,60.1,56.8,29.96,SSE,153,0.0,0.0,89,0.00,,,0.00,meteohub,2013-03-30 14:13:00,
2013-03-30 09:18:00,60.6,57.0,29.96,SSE,153,0.0,0.0,88,0.00,,,0.00,meteohub,2013-03-30 14:18:00,
2013-03-30 09:23:00,61.0,57.0,29.96,SSE,159,0.0,0.0,87,0.00,,,0.00,meteohub,2013-03-30 14:23:00,
2013-03-30 09:28:00,61.3,57.2,29.97,SSE,159,0.0,0.0,86,0.00,,,0.00,meteohub,2013-03-30 14:28:00,
2013-03-30 09:33:00,61.9,57.6,29.97,SSE,159,0.0,0.0,86,0.00,,,0.00,meteohub,2013-03-30 14:33:00,
2013-03-30 09:38:00,62.2,57.7,29.97,SSE,159,0.0,0.0,85,0.00,,,0.00,meteohub,2013-03-30 14:38:00,
2013-03-30 09:43:00,62.6,58.1,29.97,SSE,160,0.0,0.0,85,0.00,,,0.00,meteohub,2013-03-30 14:43:00,
2013-03-30 09:49:00,63.1,58.3,29.96,SSE,161,0.0,0.0,84,0.00,,,0.00,meteohub,2013-03-30 14:49:00,
2013-03-30 09:54:00,63.7,58.5,29.96,South,173,0.0,0.0,83,0.00,,,0.00,meteohub,2013-03-30 14:54:00,
2013-03-30 09:59:00,64.2,58.6,29.96,South,189,4.0,0.0,82,0.00,,,0.00,meteohub,2013-03-30 14:59:00,
2013-03-30 10:04:00,64.8,58.8,29.96,SSW,198,0.0,0.0,81,0.00,,,0.00,meteohub,2013-03-30 15:04:00,
2013-03-30 10:09:00,65.5,59.5,29.96,SSW,204,0.0,0.0,81,0.00,,,0.00,meteohub,2013-03-30 15:09:00,
2013-03-30 10:14:00,66.2,59.9,29.96,SSW,200,9.0,0.0,80,0.00,,,0.00,meteohub,2013-03-30 15:14:00,
2013-03-30 10:19:00,66.9,59.9,29.97,SW,228,4.0,15.0,78,0.00,,,0.00,meteohub,2013-03-30 15:19:00,
2013-03-30 10:24:00,67.5,59.5,29.96,WSW,241,10.0,15.0,76,0.00,,,0.00,meteohub,2013-03-30 15:24:00,
2013-03-30 10:29:00,67.8,59.5,29.96,WSW,250,17.0,17.0,75,0.00,,,0.00,meteohub,2013-03-30 15:29:00,
2013-03-30 10:34:00,68.4,60.1,29.96,SW,228,6.0,15.0,75,0.00,,,0.00,meteohub,2013-03-30 15:34:00,
2013-03-30 10:39:00,68.7,60.1,29.96,SW,233,7.0,15.0,74,0.00,,,0.00,meteohub,2013-03-30 15:39:00,
2013-03-30 10:44:00,69.3,60.3,29.95,SSW,207,8.0,15.0,73,0.00,,,0.00,meteohub,2013-03-30 15:44:00,
2013-03-30 10:49:00,69.6,60.3,29.95,SW,218,7.0,17.0,72,0.00,,,0.00,meteohub,2013-03-30 15:49:00,
2013-03-30 10:54:00,70.2,60.3,29.95,SW,228,14.0,17.0,71,0.00,,,0.00,meteohub,2013-03-30 15:54:00,
2013-03-30 10:59:00,70.3,60.1,29.95,SW,221,8.0,17.0,70,0.00,,,0.00,meteohub,2013-03-30 15:59:00,
2013-03-30 11:04:00,70.9,60.3,29.95,SW,215,6.0,17.0,69,0.00,,,0.00,meteohub,2013-03-30 16:04:00,
2013-03-30 11:09:00,71.4,60.3,29.95,SW,215,7.0,17.0,68,0.00,,,0.00,meteohub,2013-03-30 16:09:00,
2013-03-30 11:14:00,72.1,60.6,29.95,SSW,205,3.0,17.0,67,0.00,,,0.00,meteohub,2013-03-30 16:14:00,
2013-03-30 11:19:00,72.9,60.4,29.95,SW,219,8.0,20.0,65,0.00,,,0.00,meteohub,2013-03-30 16:19:00,
2013-03-30 11:24:00,72.7,60.3,29.95,SW,230,8.0,20.0,65,0.00,,,0.00,meteohub,2013-03-30 16:24:00,
2013-03-30 11:29:00,73.0,60.6,29.95,South,188,8.0,20.0,65,0.00,,,0.00,meteohub,2013-03-30 16:29:00,
2013-03-30 11:34:00,73.0,60.1,29.95,SW,216,9.0,20.0,64,0.00,,,0.00,meteohub,2013-03-30 16:34:00,
2013-03-30 11:39:00,73.8,60.8,29.95,SW,218,8.0,20.0,64,0.00,,,0.00,meteohub,2013-03-30 16:39:00,
2013-03-30 11:44:00,74.1,60.8,29.95,WSW,238,2.0,20.0,63,0.00,,,0.00,meteohub,2013-03-30 16:44:00,
2013-03-30 11:49:00,74.3,60.4,29.95,WSW,247,10.0,15.0,62,0.00,,,0.00,meteohub,2013-03-30 16:49:00,
2013-03-30 11:54:00,74.1,60.3,29.95,SW,234,0.0,15.0,62,0.00,,,0.00,meteohub,2013-03-30 16:54:00,
2013-03-30 11:59:00,74.5,60.6,29.94,SW,226,4.0,15.0,62,0.00,,,0.00,meteohub,2013-03-30 16:59:00,
2013-03-30 12:04:00,74.8,60.4,29.95,WSW,239,14.0,15.0,61,0.00,,,0.00,meteohub,2013-03-30 17:04:00,
2013-03-30 12:09:00,75.4,60.4,29.95,SSW,195,5.0,15.0,60,0.00,,,0.00,meteohub,2013-03-30 17:09:00,
2013-03-30 12:14:00,75.7,60.4,29.94,WSW,254,6.0,15.0,59,0.00,,,0.00,meteohub,2013-03-30 17:14:00,
2013-03-30 12:19:00,75.9,60.6,29.94,SW,217,3.0,15.0,59,0.00,,,0.00,meteohub,2013-03-30 17:19:00,
2013-03-30 12:24:00,76.3,60.4,29.94,WSW,246,12.0,14.0,58,0.00,,,0.00,meteohub,2013-03-30 17:24:00,
2013-03-30 12:29:00,76.3,60.4,29.94,South,171,4.0,14.0,58,0.00,,,0.00,meteohub,2013-03-30 17:29:00,
2013-03-30 12:34:00,76.5,59.2,29.93,WSW,238,10.0,14.0,55,0.00,,,0.00,meteohub,2013-03-30 17:34:00,
2013-03-30 12:39:00,76.8,59.9,29.93,SW,225,0.0,14.0,56,0.00,,,0.00,meteohub,2013-03-30 17:39:00,
2013-03-30 12:44:00,77.4,59.9,29.93,SW,225,0.0,14.0,55,0.00,,,0.00,meteohub,2013-03-30 17:44:00,
2013-03-30 12:49:00,77.7,59.7,29.93,SW,233,14.0,14.0,54,0.00,,,0.00,meteohub,2013-03-30 17:49:00,
2013-03-30 12:54:00,77.7,59.7,29.92,WSW,253,4.0,14.0,54,0.00,,,0.00,meteohub,2013-03-30 17:54:00,
2013-03-30 12:59:00,78.1,59.0,29.92,SW,232,2.0,18.0,52,0.00,,,0.00,meteohub,2013-03-30 17:59:00,
2013-03-30 13:04:00,78.3,58.6,29.92,West,263,6.0,18.0,51,0.00,,,0.00,meteohub,2013-03-30 18:04:00,
2013-03-30 13:09:00,78.3,59.7,29.92,SW,229,15.0,18.0,53,0.00,,,0.00,meteohub,2013-03-30 18:09:00,
2013-03-30 13:14:00,78.6,59.5,29.91,SSW,196,5.0,18.0,52,0.00,,,0.00,meteohub,2013-03-30 18:14:00,
2013-03-30 13:19:00,79.3,59.7,29.91,WSW,244,8.0,18.0,51,0.00,,,0.00,meteohub,2013-03-30 18:19:00,
2013-03-30 13:24:00,80.1,58.6,29.91,SW,223,7.0,18.0,48,0.00,,,0.00,meteohub,2013-03-30 18:24:00,
2013-03-30 13:29:00,80.2,59.9,29.91,WSW,239,11.0,18.0,50,0.00,,,0.00,meteohub,2013-03-30 18:29:00,
2013-03-30 13:34:00,80.4,58.3,29.90,SSW,199,11.0,18.0,47,0.00,,,0.00,meteohub,2013-03-30 18:34:00,
2013-03-30 13:40:00,80.4,59.0,29.90,SW,231,4.0,18.0,48,0.00,,,0.00,meteohub,2013-03-30 18:40:00,
2013-03-30 13:45:00,80.6,59.2,29.90,SSW,202,1.0,16.0,48,0.00,,,0.00,meteohub,2013-03-30 18:45:00,
2013-03-30 13:50:00,80.8,59.2,29.89,SW,229,6.0,16.0,48,0.00,,,0.00,meteohub,2013-03-30 18:50:00,
2013-03-30 13:55:00,81.0,58.8,29.89,WSW,242,12.0,16.0,47,0.00,,,0.00,meteohub,2013-03-30 18:55:00,
2013-03-30 14:00:00,81.1,58.5,29.89,SSW,196,3.0,18.0,46,0.00,,,0.00,meteohub,2013-03-30 19:00:00,
2013-03-30 14:05:00,81.3,58.6,29.88,WSW,242,10.0,18.0,46,0.00,,,0.00,meteohub,2013-03-30 19:05:00,
2013-03-30 14:10:00,81.7,58.3,29.88,SW,225,2.0,18.0,45,0.00,,,0.00,meteohub,2013-03-30 19:10:00,
2013-03-30 14:15:00,81.7,57.0,29.88,SSW,212,10.0,18.0,43,0.00,,,0.00,meteohub,2013-03-30 19:15:00,
2013-03-30 14:20:00,81.9,57.7,29.88,SSW,202,3.0,18.0,44,0.00,,,0.00,meteohub,2013-03-30 19:20:00,
2013-03-30 14:25:00,82.2,58.1,29.87,SW,219,7.0,18.0,44,0.00,,,0.00,meteohub,2013-03-30 19:25:00,
2013-03-30 14:30:00,82.8,57.9,29.87,SW,232,5.0,18.0,43,0.00,,,0.00,meteohub,2013-03-30 19:30:00,
2013-03-30 14:35:00,82.8,56.7,29.87,SW,225,8.0,18.0,41,0.00,,,0.00,meteohub,2013-03-30 19:35:00,
2013-03-30 14:40:00,82.6,57.2,29.86,SW,232,1.0,18.0,42,0.00,,,0.00,meteohub,2013-03-30 19:40:00,
2013-03-30 14:45:00,82.9,57.6,29.86,WNW,290,9.0,17.0,42,0.00,,,0.00,meteohub,2013-03-30 19:45:00,
2013-03-30 14:50:00,82.9,57.6,29.86,South,178,0.0,17.0,42,0.00,,,0.00,meteohub,2013-03-30 19:50:00,
2013-03-30 14:55:00,83.1,57.0,29.86,WSW,246,13.0,17.0,41,0.00,,,0.00,meteohub,2013-03-30 19:55:00,
2013-03-30 15:00:00,83.1,56.3,29.86,SW,218,4.0,20.0,40,0.00,,,0.00,meteohub,2013-03-30 20:00:00,
2013-03-30 15:05:00,83.5,55.9,29.86,SSW,212,0.0,20.0,39,0.00,,,0.00,meteohub,2013-03-30 20:05:00,
2013-03-30 15:10:00,84.0,56.5,29.85,SSW,196,0.0,20.0,39,0.00,,,0.00,meteohub,2013-03-30 20:10:00,
2013-03-30 15:15:00,84.6,56.1,29.85,WNW,295,5.0,20.0,38,0.00,,,0.00,meteohub,2013-03-30 20:15:00,
2013-03-30 15:20:00,84.4,56.7,29.84,SW,227,1.0,15.0,39,0.00,,,0.00,meteohub,2013-03-30 20:20:00,
2013-03-30 15:25:00,84.4,56.7,29.84,WSW,246,7.0,15.0,39,0.00,,,0.00,meteohub,2013-03-30 20:25:00,
2013-03-30 15:30:00,84.7,56.3,29.84,WSW,238,10.0,15.0,38,0.00,,,0.00,meteohub,2013-03-30 20:30:00,
2013-03-30 15:35:00,84.9,55.8,29.83,WSW,238,6.0,15.0,37,0.00,,,0.00,meteohub,2013-03-30 20:35:00,
2013-03-30 15:40:00,85.1,54.3,29.83,SW,236,14.0,15.0,35,0.00,,,0.00,meteohub,2013-03-30 20:40:00,
2013-03-30 15:45:00,85.1,55.2,29.83,West,277,4.0,17.0,36,0.00,,,0.00,meteohub,2013-03-30 20:45:00,
2013-03-30 15:50:00,85.5,56.3,29.83,SW,216,8.0,17.0,37,0.00,,,0.00,meteohub,2013-03-30 20:50:00,
2013-03-30 15:55:00,85.5,56.3,29.83,SW,219,8.0,17.0,37,0.00,,,0.00,meteohub,2013-03-30 20:55:00,
2013-03-30 16:00:00,85.5,56.3,29.83,WSW,238,8.0,16.0,37,0.00,,,0.00,meteohub,2013-03-30 21:00:00,
2013-03-30 16:05:00,85.3,56.1,29.82,SW,229,1.0,16.0,37,0.00,,,0.00,meteohub,2013-03-30 21:05:00,
2013-03-30 16:10:00,85.5,54.7,29.82,SW,219,5.0,16.0,35,0.00,,,0.00,meteohub,2013-03-30 21:10:00,
2013-03-30 16:15:00,85.5,55.4,29.82,SSW,211,1.0,16.0,36,0.00,,,0.00,meteohub,2013-03-30 21:15:00,
2013-03-30 16:20:00,85.8,53.4,29.82,SW,234,10.0,18.0,33,0.00,,,0.00,meteohub,2013-03-30 21:20:00,
2013-03-30 16:25:00,85.6,54.0,29.81,SW,219,1.0,18.0,34,0.00,,,0.00,meteohub,2013-03-30 21:25:00,
2013-03-30 16:30:00,85.8,55.0,29.81,SW,234,7.0,18.0,35,0.00,,,0.00,meteohub,2013-03-30 21:30:00,
2013-03-30 16:35:00,85.6,54.0,29.81,WSW,253,10.0,18.0,34,0.00,,,0.00,meteohub,2013-03-30 21:35:00,
2013-03-30 16:40:00,85.6,54.0,29.81,SW,219,0.0,18.0,34,0.00,,,0.00,meteohub,2013-03-30 21:40:00,
2013-03-30 16:45:00,85.8,53.4,29.81,SW,219,3.0,15.0,33,0.00,,,0.00,meteohub,2013-03-30 21:45:00,
2013-03-30 16:50:00,85.8,53.4,29.81,SW,223,3.0,15.0,33,0.00,,,0.00,meteohub,2013-03-30 21:50:00,
2013-03-30 16:55:00,85.6,54.0,29.80,South,184,0.0,15.0,34,0.00,,,0.00,meteohub,2013-03-30 21:55:00,
2013-03-30 17:00:00,85.8,52.5,29.80,SW,225,6.0,13.0,32,0.00,,,0.00,meteohub,2013-03-30 22:00:00,
2013-03-30 17:05:00,85.8,54.1,29.80,South,184,1.0,13.0,34,0.00,,,0.00,meteohub,2013-03-30 22:05:00,
2013-03-30 17:11:00,86.2,52.0,29.80,SSW,213,11.0,13.0,31,0.00,,,0.00,meteohub,2013-03-30 22:11:00,
2013-03-30 17:16:00,85.8,51.6,29.80,SW,219,4.0,13.0,31,0.00,,,0.00,meteohub,2013-03-30 22:16:00,
2013-03-30 17:21:00,85.6,50.7,29.80,SW,229,8.0,14.0,30,0.00,,,0.00,meteohub,2013-03-30 22:21:00,
2013-03-30 17:26:00,85.5,50.5,29.80,South,189,4.0,14.0,30,0.00,,,0.00,meteohub,2013-03-30 22:26:00,
2013-03-30 17:31:00,85.5,50.5,29.80,SW,220,2.0,14.0,30,0.00,,,0.00,meteohub,2013-03-30 22:31:00,
2013-03-30 17:36:00,85.5,51.4,29.81,WSW,249,6.0,14.0,31,0.00,,,0.00,meteohub,2013-03-30 22:36:00,
2013-03-30 17:41:00,84.7,42.8,29.79,NNW,333,11.0,26.0,23,0.00,,,0.00,meteohub,2013-03-30 22:41:00,
2013-03-30 17:46:00,84.4,41.4,29.78,NNW,348,7.0,26.0,22,0.00,,,0.00,meteohub,2013-03-30 22:46:00,
2013-03-30 17:52:00,84.4,42.6,29.78,WNW,290,1.0,26.0,23,0.00,,,0.00,meteohub,2013-03-30 22:52:00,
2013-03-30 17:57:00,84.6,42.6,29.78,WNW,286,0.0,26.0,23,0.00,,,0.00,meteohub,2013-03-30 22:57:00,
2013-03-30 18:02:00,85.1,43.2,29.78,WNW,285,0.0,21.0,23,0.00,,,0.00,meteohub,2013-03-30 23:02:00,
2013-03-30 18:07:00,85.8,43.7,29.78,West,281,0.0,21.0,23,0.00,,,0.00,meteohub,2013-03-30 23:07:00,
2013-03-30 18:12:00,86.5,44.4,29.78,West,281,0.0,21.0,23,0.00,,,0.00,meteohub,2013-03-30 23:12:00,
2013-03-30 18:17:00,87.3,43.7,29.78,SSW,193,0.0,21.0,22,0.00,,,0.00,meteohub,2013-03-30 23:17:00,
2013-03-30 18:22:00,87.4,46.2,29.78,SSW,201,0.0,21.0,24,0.00,,,0.00,meteohub,2013-03-30 23:22:00,
2013-03-30 18:27:00,87.4,46.2,29.77,SSW,209,1.0,5.0,24,0.00,,,0.00,meteohub,2013-03-30 23:27:00,
2013-03-30 18:32:00,87.3,46.0,29.77,SW,230,0.0,5.0,24,0.00,,,0.00,meteohub,2013-03-30 23:32:00,
2013-03-30 18:37:00,87.3,47.1,29.77,SSW,196,1.0,5.0,25,0.00,,,0.00,meteohub,2013-03-30 23:37:00,
2013-03-30 18:42:00,87.4,47.3,29.77,South,176,1.0,5.0,25,0.00,,,0.00,meteohub,2013-03-30 23:42:00,
2013-03-30 18:48:00,87.6,48.6,29.76,SSW,194,5.0,5.0,26,0.00,,,0.00,meteohub,2013-03-30 23:48:00,
2013-03-30 18:53:00,87.4,49.3,29.76,SW,236,5.0,5.0,27,0.00,,,0.00,meteohub,2013-03-30 23:53:00,
2013-03-30 18:58:00,87.3,49.3,29.76,SW,232,3.0,10.0,27,0.00,,,0.00,meteohub,2013-03-30 23:58:00,
2013-03-30 19:03:00,86.9,48.9,29.77,South,188,0.0,10.0,27,0.00,,,0.00,meteohub,2013-03-31 00:03:00,
2013-03-30 19:08:00,86.5,47.7,29.77,WSW,240,0.0,10.0,26,0.00,,,0.00,meteohub,2013-03-31 00:08:00,
2013-03-30 19:13:00,86.2,47.3,29.77,SW,234,3.0,10.0,26,0.00,,,0.00,meteohub,2013-03-31 00:13:00,
2013-03-30 19:18:00,85.6,46.8,29.77,SSW,205,3.0,10.0,26,0.00,,,0.00,meteohub,2013-03-31 00:18:00,
2013-03-30 19:23:00,85.3,46.6,29.77,South,180,0.0,10.0,26,0.00,,,0.00,meteohub,2013-03-31 00:23:00,
2013-03-30 19:28:00,84.9,47.1,29.77,South,182,0.0,10.0,27,0.00,,,0.00,meteohub,2013-03-31 00:28:00,
2013-03-30 19:33:00,84.6,46.9,29.77,SSW,207,0.0,10.0,27,0.00,,,0.00,meteohub,2013-03-31 00:33:00,
2013-03-30 19:38:00,84.2,47.5,29.77,SW,217,0.0,3.0,28,0.00,,,0.00,meteohub,2013-03-31 00:38:00,
2013-03-30 19:43:00,83.7,48.0,29.77,SSW,202,0.0,3.0,29,0.00,,,0.00,meteohub,2013-03-31 00:43:00,
2013-03-30 19:48:00,83.3,48.6,29.77,SSW,208,5.0,5.0,30,0.00,,,0.00,meteohub,2013-03-31 00:48:00,
2013-03-30 19:53:00,82.8,49.1,29.77,SW,234,0.0,3.0,31,0.00,,,0.00,meteohub,2013-03-31 00:53:00,
2013-03-30 19:58:00,82.4,48.7,29.77,SSW,213,0.0,6.0,31,0.00,,,0.00,meteohub,2013-03-31 00:58:00,
2013-03-30 20:03:00,82.0,48.4,29.76,SSW,205,0.0,6.0,31,0.00,,,0.00,meteohub,2013-03-31 01:03:00,
2013-03-30 20:08:00,81.7,48.0,29.76,SSW,200,0.0,6.0,31,0.00,,,0.00,meteohub,2013-03-31 01:08:00,
2013-03-30 20:13:00,81.3,47.8,29.77,SSW,200,0.0,6.0,31,0.00,,,0.00,meteohub,2013-03-31 01:13:00,
2013-03-30 20:18:00,81.0,48.4,29.77,SSW,200,0.0,3.0,32,0.00,,,0.00,meteohub,2013-03-31 01:18:00,
2013-03-30 20:23:00,80.4,47.8,29.77,SSW,200,0.0,3.0,32,0.00,,,0.00,meteohub,2013-03-31 01:23:00,
2013-03-30 20:28:00,79.9,47.3,29.77,SSW,200,0.0,3.0,32,0.00,,,0.00,meteohub,2013-03-31 01:28:00,
2013-03-30 20:33:00,79.3,47.7,29.77,SSW,200,0.0,0.0,33,0.00,,,0.00,meteohub,2013-03-31 01:33:00,
2013-03-30 20:38:00,79.0,48.2,29.77,SSW,200,0.0,0.0,34,0.00,,,0.00,meteohub,2013-03-31 01:38:00,
2013-03-30 20:43:00,78.4,48.6,29.77,SSE,165,0.0,0.0,35,0.00,,,0.00,meteohub,2013-03-31 01:43:00,
2013-03-30 20:48:00,78.1,48.2,29.77,SSE,165,0.0,0.0,35,0.00,,,0.00,meteohub,2013-03-31 01:48:00,
2013-03-30 20:53:00,77.5,48.6,29.78,SSE,151,0.0,6.0,36,0.00,,,0.00,meteohub,2013-03-31 01:53:00,
2013-03-30 20:58:00,77.4,49.1,29.78,SSE,156,0.0,6.0,37,0.00,,,0.00,meteohub,2013-03-31 01:58:00,
2013-03-30 21:04:00,77.0,49.5,29.78,SSE,155,0.0,6.0,38,0.00,,,0.00,meteohub,2013-03-31 02:04:00,
2013-03-30 21:09:00,76.8,50.0,29.78,SSE,155,0.0,6.0,39,0.00,,,0.00,meteohub,2013-03-31 02:09:00,
2013-03-30 21:14:00,76.5,50.4,29.78,SSE,155,0.0,0.0,40,0.00,,,0.00,meteohub,2013-03-31 02:14:00,
2013-03-30 21:19:00,76.1,51.3,29.78,SSE,155,0.0,0.0,42,0.00,,,0.00,meteohub,2013-03-31 02:19:00,
2013-03-30 21:24:00,75.6,50.9,29.78,SSE,155,0.0,0.0,42,0.00,,,0.00,meteohub,2013-03-31 02:24:00,
2013-03-30 21:29:00,74.8,50.2,29.79,SSE,155,0.0,0.0,42,0.00,,,0.00,meteohub,2013-03-31 02:29:00,
2013-03-30 21:34:00,74.3,52.2,29.79,SE,146,0.0,0.0,46,0.00,,,0.00,meteohub,2013-03-31 02:34:00,
2013-03-30 21:39:00,73.9,52.5,29.79,SE,138,0.0,0.0,47,0.00,,,0.00,meteohub,2013-03-31 02:39:00,
2013-03-30 21:44:00,73.8,52.9,29.80,SE,136,0.0,0.0,48,0.00,,,0.00,meteohub,2013-03-31 02:44:00,
2013-03-30 21:49:00,73.6,53.8,29.80,SE,140,0.0,0.0,50,0.00,,,0.00,meteohub,2013-03-31 02:49:00,
2013-03-30 21:54:00,73.4,54.7,29.80,SE,128,0.0,6.0,52,0.00,,,0.00,meteohub,2013-03-31 02:54:00,
2013-03-30 21:59:00,73.2,54.5,29.80,ESE,118,0.0,6.0,52,0.00,,,0.00,meteohub,2013-03-31 02:59:00,
2013-03-30 22:04:00,73.2,55.0,29.80,SE,125,0.0,6.0,53,0.00,,,0.00,meteohub,2013-03-31 03:04:00,
2013-03-30 22:09:00,73.2,55.6,29.81,SE,127,0.0,6.0,54,0.00,,,0.00,meteohub,2013-03-31 03:09:00,
2013-03-30 22:14:00,73.2,56.1,29.81,SE,139,0.0,5.0,55,0.00,,,0.00,meteohub,2013-03-31 03:14:00,
2013-03-30 22:19:00,73.0,55.9,29.81,SE,139,0.0,5.0,55,0.00,,,0.00,meteohub,2013-03-31 03:19:00,
2013-03-30 22:24:00,72.9,56.3,29.81,SE,139,0.0,5.0,56,0.00,,,0.00,meteohub,2013-03-31 03:24:00,
2013-03-30 22:29:00,72.9,56.7,29.81,SE,139,0.0,5.0,57,0.00,,,0.00,meteohub,2013-03-31 03:29:00,
2013-03-30 22:34:00,72.7,57.0,29.81,SE,135,0.0,0.0,58,0.00,,,0.00,meteohub,2013-03-31 03:34:00,
2013-03-30 22:39:00,72.3,57.2,29.82,SE,134,0.0,0.0,59,0.00,,,0.00,meteohub,2013-03-31 03:39:00,
2013-03-30 22:44:00,72.1,57.0,29.82,SE,132,0.0,0.0,59,0.00,,,0.00,meteohub,2013-03-31 03:44:00,
2013-03-30 22:49:00,72.1,57.6,29.82,South,184,0.0,0.0,60,0.00,,,0.00,meteohub,2013-03-31 03:49:00,
2013-03-30 22:54:00,72.1,57.6,29.82,ESE,109,0.0,11.0,60,0.00,,,0.00,meteohub,2013-03-31 03:54:00,
2013-03-30 22:59:00,72.3,57.2,29.82,ESE,123,0.0,11.0,59,0.00,,,0.00,meteohub,2013-03-31 03:59:00,
2013-03-30 23:00:00,72.3,57.2,29.82,SE,125,0.0,11.0,59,0.00,,,0.00,meteohub,2013-03-31 04:00:00,
2013-03-30 23:01:00,72.3,57.2,29.82,ESE,103,4.0,11.0,59,0.00,,,0.00,meteohub,2013-03-31 04:01:00,
2013-03-30 23:06:00,72.3,57.2,29.82,ESE,109,0.0,11.0,59,0.00,,,0.00,meteohub,2013-03-31 04:06:00,
2013-03-30 23:11:00,72.1,57.6,29.82,ESE,117,4.0,11.0,60,0.00,,,0.00,meteohub,2013-03-31 04:11:00,
2013-03-30 23:17:00,72.0,57.4,29.82,ESE,115,4.0,12.0,60,0.00,,,0.00,meteohub,2013-03-31 04:17:00,
2013-03-30 23:22:00,72.0,57.7,29.83,SE,140,4.0,12.0,61,0.00,,,0.00,meteohub,2013-03-31 04:22:00,
2013-03-30 23:27:00,71.8,57.6,29.82,SSE,152,5.0,12.0,61,0.00,,,0.00,meteohub,2013-03-31 04:27:00,
2013-03-30 23:32:00,71.6,57.9,29.82,South,175,6.0,13.0,62,0.00,,,0.00,meteohub,2013-03-31 04:32:00,
2013-03-30 23:37:00,71.4,57.7,29.81,SE,137,0.0,13.0,62,0.00,,,0.00,meteohub,2013-03-31 04:37:00,
2013-03-30 23:42:00,71.4,57.7,29.81,SSE,149,5.0,13.0,62,0.00,,,0.00,meteohub,2013-03-31 04:42:00,
2013-03-30 23:47:00,71.2,57.6,29.81,SE,128,0.0,13.0,62,0.00,,,0.00,meteohub,2013-03-31 04:47:00,
2013-03-30 23:52:00,71.1,57.7,29.81,SE,143,0.0,11.0,63,0.00,,,0.00,meteohub,2013-03-31 04:52:00,
2013-03-30 23:57:00,70.9,57.7,29.81,ESE,123,0.0,11.0,63,0.00,,,0.00,meteohub,2013-03-31 04:57:00,